Lexington Weather

Lexington, Massachusetts, USA

56°F
10/22/2020 7:42pm 
  • Lexington Conditions: Mostly cloudy
  • Temperature: 55.8°F / 13.2°CColder 0.3°F than last hour.
  • Dew Point: 54.3°FDecreased 0.4°Fsince last hour.
  • Relative Humidity: 95
  • Wind: Wind from NNE NNE 1 mph, 10-min avg: 1 mph, gust: 2 mph
  • Barometer: 30.22 in Steady
  • Visibility: 7 miles
  • Rain Today: 0.00 in
  •   

Regional Weather Roundup
for Boston / Norton, MA

        
000
ASUS41 KBOX 181104
RWRBOX

REGIONAL WEATHER ROUNDUP
NATIONAL WEATHER SERVICE BOSTON/NORTON MA
700 AM EDT SUN OCT 18 2020

NOTE:  "FAIR" INDICATES FEW OR NO CLOUDS BELOW 12,000 FEET WITH NO 
SIGNIFICANT WEATHER AND/OR OBSTRUCTIONS TO VISIBILITY.

MAZALL-181200-
EASTERN MASSACHUSETTS
  
CITY           SKY/WX    TMP DP  RH WIND       PRES   REMARKS
BOSTON         PTCLDY    41  35  79 N3        30.53R                  
BEVERLY        CLEAR     33  31  92 CALM      30.52R                  
LAWRENCE       CLEAR     34  32  92 CALM      30.54R                  
BEDFORD        CLEAR     29  27  92 CALM      30.51R                  
BLUE HILL        N/A     48  27  44 SE7       30.49S                  
NORWOOD        CLEAR     31  28  89 CALM      30.52S                  
MARSHFIELD     CLEAR     34  34 100 CALM      30.52R                  
PLYMOUTH       CLEAR     33  31  92 CALM      30.51S                  
TAUNTON        FOG       32  29  88 CALM      30.52R VSB 1/4          
NEW BEDFORD    CLEAR     32  30  92 CALM      30.51R                  
$$

MAZALL-181200-
CAPE COD AND THE ISLANDS
  
CITY           SKY/WX    TMP DP  RH WIND       PRES   REMARKS
FALMOUTH       NOT AVBL                                               
HYANNIS        CLEAR     33  32  96 CALM      30.51R                  
CHATHAM        CLEAR     39  36  89 CALM      30.53R                  
PROVINCETOWN   CLEAR     30  28  92 CALM      30.53R                  
NANTUCKET      CLEAR     46  36  68 E6        30.51R                  
MARTHAS VNYRD  CLEAR     29  27  92 CALM      30.51R                  
$$
 
MAZALL-181200-
CENTRAL AND WESTERN MASSACHUSETTS
  
CITY           SKY/WX    TMP DP  RH WIND       PRES   REMARKS
WORCESTER      CLEAR     43  27  53 S3        30.49R                  
FITCHBURG      CLEAR     32  30  92 CALM      30.52R                  
ORANGE         FOG       30  29  96 CALM      30.52S VSB 1/2          
SPRINGFIELD    CLEAR     30  29  97 CALM      30.50R                  
WESTFIELD      CLEAR     30  29  96 NE3       30.51R                  
NORTH ADAMS    CLEAR     30  28  92 CALM      30.50R                  
PITTSFIELD     CLEAR     30  28  92 CALM      30.46R                  
$$
 
RIZALL-181200-
RHODE ISLAND
  
CITY           SKY/WX    TMP DP  RH WIND       PRES   REMARKS
PROVIDENCE     PTCLDY    36  34  92 W3        30.52S                  
NEWPORT        CLEAR     38  37  97 CALM      30.50S                  
BLOCK ISLAND   CLEAR     49  33  54 E7        30.50S                  
SMITHFIELD     CLEAR     36  34  92 CALM        N/A                   
WESTERLY       CLEAR     35  32  88 CALM      30.50S                  
$$
 
CTZALL-181200-
CONNECTICUT
  
CITY           SKY/WX    TMP DP  RH WIND       PRES   REMARKS
BRADLEY INTL   PTCLDY    32  29  88 NW3       30.51R                  
HARTFORD       CLEAR     35  32  88 CALM      30.51S FOG              
BRIDGEPORT     CLEAR     43  37  79 NE7       30.48S                  
DANBURY        CLOUDY    33  31  92 CALM      30.50R FOG              
GROTON         CLEAR     37  33  85 N6        30.49S                  
NEW HAVEN      CLEAR     38  34  85 N6        30.49R                  
CHESTER        NOT AVBL                                               
MERIDEN        CLEAR     34  31  88 NW3       30.51R                  
WILLIMANTIC    CLEAR     30  28  92 N3        30.51S                  
OXFORD         CLEAR     38  32  79 E6        30.48R                  
$$

MEZ002-015-021-024-NHZ003-005-008-011-012-014-VTZ005-008-181200-
NORTHERN NEW ENGLAND
  
CITY           SKY/WX    TMP DP  RH WIND       PRES   REMARKS
PORTLAND ME    PTCLDY    30  30 100 W5        30.53R WCI  25          
BANGOR ME      PTCLDY    30  29  96 CALM      30.54R                  
CONCORD NH     FOG       30  29  96 CALM      30.53R VSB 1/4          
MANCHESTER NH  FOG       33  30  88 CALM      30.51R VSB 1/4          
NASHUA NH      CLEAR     29  29 100 NW5       30.53R WCI  24          
PORTSMOUTH NH  PTCLDY    34  33  95 CALM      30.51R                  
JAFFREY NH     PTCLDY    29  27  92 CALM      30.50                   
KEENE NH       FOG       29  29 100 CALM      30.52S VSB 1/4          
BURLINGTON VT  MOCLDY    46  31  55 S10       30.43S                  
MT. WASHINGTON PTCLDY    30   1  29 SW18        N/A  WCI  18          
$$

NYZ052-076-181200-
EASTERN NEW YORK
  
CITY           SKY/WX    TMP DP  RH WIND       PRES   REMARKS
ALBANY         PTCLDY    31  31 100 CALM      30.47S                  
NEW YORK CITY  PTCLDY    50  43  77 CALM      30.47R                  
$$
 
ANZALL-181200-
MARINE OBSERVATIONS
  
STATION/POSITION TIME  TEMP    WIND        PRES    VSBY  WAVE
                       AIR SEA DIR/SP/G                  HT/PER
                 (UTC) (F)     (DEG/KT/KT) (MB)    (MI)  (FT/S)
BOSTON BUOY      1050   53 56  280/  2/  2 1032.9R         1/10
BUZZARDS BAY     1000          110/  7/  8 1033.8R
NANTUCKET SOUND  1050      62   80/ 12/ 14   N/A           1
MASS BAY-STELLWA NOT AVBL
ISLE OF SHOALS   1000   45     280/  4/  5 1032.8R
S OF BLOCK IS    1026      63                N/A           2/11
$$

......................KEY.........................
  SKY/WX - SKY CONDITION/PRESENT WEATHER
  TMP    - TEMPERATURE IN FAHRENHEIT
  DWPT   - DEWPOINT IN FAHRENHEIT
  RH     - RELATIVE HUMIDITY IN PERCENT
  WIND   - DIRECTION AND SPEED IN MPH
  PRES   - MEAN SEA LEVEL PRESSURE IN INCHES OF HG
  WCI    - WIND CHILL INDEX
  VSB    - VISIBILITY IN MILES
  HX     - HEAT INDEX
  TC     - TEMPERATURE IN CELSIUS
  VRB    - VARIABLE WIND DIRECTION
  N/A    - NOT AVAILABLE
  
      

Other recent Regional Weather Roundups

Thu Oct 22, 7:05pm

Thu Oct 22, 6:04pm

Thu Oct 22, 5:04pm

Thu Oct 22, 4:05pm

Thu Oct 22, 3:04pm

Thu Oct 22, 2:05pm

Thu Oct 22, 1:04pm

Thu Oct 22, 12:04pm

Thu Oct 22, 11:04am

Thu Oct 22, 10:05am

Thu Oct 22, 9:04am

Thu Oct 22, 8:05am

Thu Oct 22, 7:04am

Thu Oct 22, 6:04am

Thu Oct 22, 5:04am

Thu Oct 22, 4:04am

Thu Oct 22, 3:04am

Thu Oct 22, 2:04am

Thu Oct 22, 1:04am

Thu Oct 22, 12:04am

Wed Oct 21, 11:05pm

Wed Oct 21, 10:04pm

Wed Oct 21, 9:04pm

Wed Oct 21, 8:04pm

Wed Oct 21, 7:04pm

Wed Oct 21, 6:04pm

Wed Oct 21, 5:05pm

Wed Oct 21, 4:04pm

Wed Oct 21, 3:04pm

Wed Oct 21, 2:05pm

Wed Oct 21, 1:04pm

Wed Oct 21, 12:04pm

Wed Oct 21, 11:04am

Wed Oct 21, 10:04am

Wed Oct 21, 9:04am

Wed Oct 21, 8:04am

Wed Oct 21, 7:04am

Wed Oct 21, 6:04am

Wed Oct 21, 5:04am

Wed Oct 21, 4:04am

Wed Oct 21, 3:04am

Wed Oct 21, 2:04am

Wed Oct 21, 1:04am

Wed Oct 21, 12:04am

Tue Oct 20, 11:05pm

Tue Oct 20, 10:04pm

Tue Oct 20, 9:04pm

Tue Oct 20, 8:05pm

Tue Oct 20, 7:04pm

Tue Oct 20, 6:04pm

Tue Oct 20, 5:05pm

Tue Oct 20, 4:04pm

Tue Oct 20, 3:05pm

Tue Oct 20, 2:07pm

Tue Oct 20, 1:04pm

Tue Oct 20, 12:04pm

Tue Oct 20, 11:04am

Tue Oct 20, 10:05am

Tue Oct 20, 9:04am

Tue Oct 20, 8:04am

Tue Oct 20, 7:04am

Tue Oct 20, 6:04am

Tue Oct 20, 5:04am

Tue Oct 20, 4:04am

Tue Oct 20, 3:04am

Tue Oct 20, 2:04am

Tue Oct 20, 1:04am

Tue Oct 20, 12:04am

Mon Oct 19, 11:04pm

Mon Oct 19, 10:04pm

Mon Oct 19, 9:04pm

Mon Oct 19, 8:04pm

Mon Oct 19, 7:04pm

Mon Oct 19, 6:04pm

Mon Oct 19, 5:04pm

Mon Oct 19, 4:04pm

Mon Oct 19, 3:04pm

Mon Oct 19, 2:04pm

Mon Oct 19, 1:05pm

Mon Oct 19, 12:04pm

Mon Oct 19, 11:04am

Mon Oct 19, 10:04am

Mon Oct 19, 9:04am

Mon Oct 19, 8:04am

Mon Oct 19, 7:04am

Mon Oct 19, 6:04am

Mon Oct 19, 5:04am

Mon Oct 19, 4:04am

Mon Oct 19, 3:04am

Mon Oct 19, 2:04am

Mon Oct 19, 1:04am

Mon Oct 19, 12:05am

Sun Oct 18, 11:04pm

Sun Oct 18, 10:04pm

Sun Oct 18, 9:04pm

Sun Oct 18, 8:04pm

Sun Oct 18, 7:05pm

Sun Oct 18, 6:04pm

Sun Oct 18, 5:05pm

Sun Oct 18, 4:05pm

Sun Oct 18, 3:04pm

Sun Oct 18, 2:05pm

Sun Oct 18, 1:04pm

Sun Oct 18, 12:04pm

Sun Oct 18, 11:04am

Sun Oct 18, 10:04am

Sun Oct 18, 9:04am

Sun Oct 18, 8:04am

Sun Oct 18, 6:04am

Sun Oct 18, 5:04am

Sun Oct 18, 4:04am

Sun Oct 18, 3:04am

Sun Oct 18, 2:04am

Sun Oct 18, 1:04am

Sun Oct 18, 12:04am

Sat Oct 17, 11:05pm

Sat Oct 17, 10:04pm

Sat Oct 17, 9:04pm

Sat Oct 17, 8:04pm

Sat Oct 17, 7:04pm

Sat Oct 17, 6:04pm

Sat Oct 17, 5:05pm

Sat Oct 17, 4:04pm

Sat Oct 17, 3:04pm

Sat Oct 17, 2:05pm

Sat Oct 17, 1:05pm

Sat Oct 17, 12:04pm

Sat Oct 17, 11:05am

Sat Oct 17, 10:04am

Sat Oct 17, 9:04am

Sat Oct 17, 8:04am

Sat Oct 17, 7:04am

Sat Oct 17, 6:04am

Sat Oct 17, 5:04am

Sat Oct 17, 4:04am

Sat Oct 17, 3:04am

Sat Oct 17, 2:04am

Sat Oct 17, 1:05am

Sat Oct 17, 12:04am

Fri Oct 16, 11:05pm

Fri Oct 16, 10:04pm

Fri Oct 16, 9:05pm

Fri Oct 16, 8:04pm

Fri Oct 16, 7:05pm

Fri Oct 16, 6:04pm

Fri Oct 16, 5:04pm

Fri Oct 16, 4:05pm

Fri Oct 16, 3:04pm

Fri Oct 16, 2:04pm

Fri Oct 16, 1:04pm

Fri Oct 16, 12:04pm

Fri Oct 16, 11:05am

Fri Oct 16, 10:04am

Fri Oct 16, 9:04am

Fri Oct 16, 8:04am

Fri Oct 16, 7:04am

Fri Oct 16, 6:04am

Fri Oct 16, 5:04am

Fri Oct 16, 4:04am

Fri Oct 16, 3:04am

Fri Oct 16, 2:04am

Fri Oct 16, 1:04am

Fri Oct 16, 12:04am

Thu Oct 15, 11:04pm

Thu Oct 15, 10:04pm

Thu Oct 15, 9:05pm

Thu Oct 15, 8:04pm

Meta data:

ID: a876bc9d-0ed9-4d60-90da-b19726794451
Link: https://api.weather.gov/products/a876bc9d-0ed9-4d60-90da-b19726794451